[[{"header":{"parameterUnit":"m.s-1","parameterCategory":2,"la1":30.2991,"la2":30.254,"lo1":-89.0895,"lo2":-89.0444,"dy":0.0017,"dx":0.0017,"nx":28,"ny":28,"refTime":"2023-09-05T03:00:00:Z","depth":"0","parameterNumber":2,"parameterNumberName":"U-component_of_CURRENTS"},"data":[0,0,0,0,0,0,0,0,0,0,0,0,0,0,0,0,0,0,0,0,0,0,0,0,0,0,0,0,0,0,0,0,0,0,0,0,0,0,0,0,0,0,0,0,0,0,0,0,0,0,0,0,0,0,0,0,0,0,0.2299,0.23,0,0.2318,0.2318,0.2318,0.2306,0.2306,0.2306,0.2306,0.2259,0.2258,0.2257,0,0,0,0,0,0,0,0,0,0,0,0,0,0.2269,0.2269,0.2299,0.23,0.23,0.2318,0.2318,0.2318,0.2306,0.2306,0.2306,0.2305,0.226,0.2258,0.2257,0,0,0,0,0,0,0,0,0,0,0,0,0,0.2282,0.2269,0.2299,0.2298,0.2299,0.2318,0.2318,0.2318,0.2307,0.2306,0.2306,0.2305,0.226,0.2259,0.2257,0.2258,0,0,0.2253,0.2252,0,0,0,0,0,0,0,0,0.2281,0.2282,0.2298,0.2299,0.2299,0.2312,0.229,0.2295,0.2307,0.2301,0.2306,0.2305,0.2273,0.227,0.2272,0.2255,0.2253,0.2253,0.2252,0.2251,0.2251,0,0,0,0,0,0,0,0.228,0.2282,0.2304,0.2299,0.2299,0.2303,0.2304,0.2291,0.2286,0.2301,0.2301,0.2308,0.2272,0.2273,0.2271,0.2253,0.2253,0.2251,0.2251,0.225,0.2256,0.2257,0,0,0,0,0,0,0.2283,0.2281,0.2303,0.2305,0.2292,0.2304,0.2305,0.2306,0.2287,0.2286,0.2308,0.2307,0.2276,0.2272,0.2269,0.2284,0.2251,0.225,0.2249,0.2255,0.2256,0.2257,0,0,0,0,0,0,0.2282,0.2284,0.2303,0.2296,0.2298,0.2305,0.2306,0.2307,0.2311,0.2294,0.229,0.2313,0.2276,0.2271,0.2269,0.2281,0.2249,0.2248,0.2254,0.2255,0.2257,0.2304,0,0,0,0,0,0,0.2281,0.2284,0.2283,0.2296,0.2299,0.232,0.2307,0.2307,0.2317,0.2316,0.2297,0.2292,0.2275,0.2271,0.2267,0.2279,0.2247,0.2253,0.2255,0.2256,0.2301,0.2307,0.2312,0,0,0,0,0,0.228,0.228,0.2283,0.2286,0.2299,0.2321,0.2323,0.2324,0.2318,0.2325,0.2315,0.2293,0.228,0.2271,0.2266,0.2277,0.2252,0.2254,0.2256,0.2299,0.2306,0.2312,0,0,0,0,0,0,0.2263,0.228,0.2283,0.2287,0.2307,0.232,0.2326,0.2329,0.2328,0.2326,0.2303,0.2298,0.2305,0.2286,0.2276,0.2287,0.2263,0.2265,0.2297,0.2304,0.2309,0.2319,0.2246,0,0,0,0,0,0.2262,0.2267,0.2288,0.2293,0.2304,0.2317,0.2325,0.2332,0.2335,0.2335,0.2322,0.2312,0.2311,0.2303,0.2299,0.2298,0.2304,0.2305,0.231,0.2315,0.2321,0.2345,0.2353,0.2265,0.2265,0.2265,0,0,0.2256,0.2267,0.2269,0.2291,0.2303,0.2324,0.232,0.234,0.2353,0.2329,0.2335,0.2332,0.2318,0.2325,0.2325,0.2308,0.2346,0.2317,0.2321,0.2326,0.2348,0.2357,0.2365,0.2266,0.2266,0.2266,0,0,0.2255,0.226,0.227,0.2289,0.2318,0.233,0.2339,0.236,0.2364,0.2375,0.2367,0.2376,0.236,0.2363,0.2359,0.2391,0.2379,0.2386,0.2412,0.2436,0.2443,0.245,0.2482,0.2491,0.2381,0.2381,0.2382,0,0.2249,0.2261,0.2277,0.2298,0.2313,0.2335,0.2354,0.2367,0.2383,0.2393,0.2381,0.2392,0.2381,0.2398,0.2413,0.2403,0.2416,0.2387,0.2443,0.245,0.2455,0.2486,0.2496,0.2384,0.2384,0.2383,0.2383,0,0.226,0.2273,0.2283,0.2314,0.2333,0.2355,0.2382,0.2402,0.241,0.2422,0.2445,0.244,0.2445,0.2447,0.2438,0.2476,0.2474,0.2453,0.2427,0.2467,0.2497,0.2506,0.2388,0.2387,0.2386,0.2385,0,0,0.2235,0.2282,0.2284,0.2299,0.2344,0.2358,0.2394,0.2429,0.2451,0.2466,0.2493,0.2501,0.2506,0.2504,0.2498,0.2518,0.2578,0.2505,0.2505,0.2538,0.2641,0.2644,0.2654,0.2565,0.2567,0.2568,0.265,0,0.2239,0.227,0.2296,0.2325,0.2342,0.2381,0.241,0.2447,0.2471,0.2505,0.252,0.254,0.2523,0.2532,0.2553,0.2575,0.2601,0.2558,0.2596,0.2598,0.2596,0.2664,0.2587,0.2653,0.2659,0.266,0.2661,0,0.2238,0.2259,0.2285,0.2329,0.2341,0.2366,0.2418,0.2451,0.2513,0.2529,0.2562,0.2578,0.2622,0.2596,0.2655,0.2628,0.2643,0.2655,0.2658,0.2649,0.2617,0.2611,0.2669,0.2612,0.2675,0.2674,0.2673,0,0.22,0.2247,0.2263,0.2279,0.2337,0.236,0.2398,0.2459,0.2479,0.2554,0.2578,0.2627,0.2651,0.2684,0.2719,0.2691,0.2787,0.2746,0.2763,0.2764,0.27,0.2692,0.2706,0.279,0.279,0.279,0.2789,0,0.2184,0.2195,0.2247,0.2255,0.2277,0.2338,0.2369,0.2417,0.2482,0.2517,0.2585,0.2627,0.2674,0.2734,0.2753,0.2803,0.2815,0.2793,0.2792,0.2716,0.2709,0.2656,0.2625,0.2793,0.2792,0.2792,0.2791,0,0.2133,0.217,0.2185,0.2242,0.2256,0.2273,0.233,0.2358,0.2436,0.249,0.2517,0.2629,0.2727,0.2779,0.285,0.2844,0.2821,0.2899,0.2817,0.2806,0.2752,0.2725,0.2635,0.2549,0.2932,0.2933,0.2933,0,0.2107,0.2113,0.2151,0.2154,0.2177,0.221,0.2235,0.2313,0.2353,0.2494,0.2526,0.2651,0.2728,0.2855,0.2901,0.2959,0.2849,0.2895,0.2823,0.2764,0.2734,0.2602,0.2526,0.2762,0.2761,0.276,0.276,0,0.2053,0.2068,0.2079,0.2085,0.2102,0.2115,0.2171,0.2187,0.2305,0.2367,0.2484,0.2566,0.2739,0.2792,0.289,0.2909,0.2764,0.2882,0.2833,0.2627,0.247,0.2381,0.2701,0.2753,0.2754,0.2754,0.2755,0.2755,0.2002,0.1992,0.2006,0.2004,0.2018,0.2023,0.2011,0.2092,0.214,0.2236,0.2388,0.2488,0.2649,0.2797,0.2803,0.2791,0.274,0.271,0.2694,0.2573,0.2451,0.2774,0.2813,0.2814,0.2815,0.2816,0.2817,0,0.1929,0.1927,0.1925,0.1913,0.1892,0.193,0.1963,0.1951,0.1986,0.2136,0.2228,0.2397,0.2493,0.2607,0.2707,0.2625,0.2464,0.2543,0.2333,0.2273,0.2586,0.254,0.2506,0.2506,0.2506,0.2506,0.2507,0.2507,0.189,0.1854,0.1852,0.1788,0.1781,0.1727,0.1723,0.1735,0.1819,0.1915,0.2025,0.2165,0.2411,0.2584,0.2576,0.2503,0.2282,0.2183,0.2147,0.2384,0.2397,0.2409,0.2358,0.2287,0.2287,0.1727,0.1723,0.172]},{"header":{"parameterUnit":"m.s-1","parameterCategory":2,"la1":30.2991,"la2":30.254,"lo1":-89.0895,"lo2":-89.0444,"dy":0.0017,"dx":0.0017,"nx":28,"ny":28,"refTime":"2023-09-05T03:00:00:Z","depth":"0","parameterNumber":3,"parameterNumberName":"V-component_of_CURRENTS"},"data":[0,0,0,0,0,0,0,0,0,0,0,0,0,0,0,0,0,0,0,0,0,0,0,0,0,0,0,0,0,0,0,0,0,0,0,0,0,0,0,0,0,0,0,0,0,0,0,0,0,0,0,0,0,0,0,0,0,0,-0.0317,-0.0318,0,-0.0355,-0.0356,-0.0356,-0.0376,-0.0376,-0.0377,-0.0377,-0.0433,-0.0434,-0.0435,0,0,0,0,0,0,0,0,0,0,0,0,0,-0.0278,-0.0279,-0.0317,-0.0318,-0.0318,-0.0355,-0.0356,-0.0356,-0.0376,-0.0376,-0.0377,-0.0377,-0.0432,-0.0434,-0.0435,0,0,0,0,0,0,0,0,0,0,0,0,0,-0.0303,-0.0279,-0.0317,-0.0333,-0.0335,-0.0355,-0.0356,-0.0356,-0.0376,-0.0376,-0.0377,-0.0377,-0.0432,-0.0434,-0.0436,-0.0446,0,0,-0.0442,-0.0443,0,0,0,0,0,0,0,0,-0.0301,-0.0304,-0.033,-0.0332,-0.0334,-0.0362,-0.0362,-0.0387,-0.0376,-0.036,-0.0377,-0.0377,-0.0411,-0.0415,-0.042,-0.0449,-0.0451,-0.0442,-0.0444,-0.0444,-0.0445,0,0,0,0,0,0,0,-0.03,-0.0303,-0.0332,-0.0331,-0.0333,-0.0344,-0.0347,-0.0367,-0.0384,-0.0362,-0.0363,-0.0368,-0.0412,-0.0418,-0.0422,-0.0452,-0.0442,-0.0444,-0.0445,-0.0446,-0.0496,-0.0496,0,0,0,0,0,0,-0.0295,-0.0301,-0.0331,-0.0333,-0.0318,-0.0345,-0.0348,-0.0352,-0.0384,-0.0389,-0.0368,-0.0369,-0.0415,-0.0419,-0.0424,-0.0433,-0.0444,-0.0446,-0.0448,-0.0495,-0.0496,-0.0496,0,0,0,0,0,0,-0.0294,-0.0297,-0.0329,-0.0318,-0.0323,-0.0345,-0.0349,-0.0353,-0.0359,-0.0388,-0.0394,-0.037,-0.0415,-0.0421,-0.0445,-0.0435,-0.0447,-0.0449,-0.0495,-0.0495,-0.0496,-0.0454,0,0,0,0,0,0,-0.0293,-0.0297,-0.0298,-0.0318,-0.0324,-0.0337,-0.0349,-0.0354,-0.0362,-0.0364,-0.0392,-0.0398,-0.0416,-0.0442,-0.0447,-0.0438,-0.0451,-0.0495,-0.0495,-0.0496,-0.0455,-0.0452,-0.045,0,0,0,0,0,-0.0291,-0.0289,-0.0298,-0.0301,-0.0324,-0.0337,-0.0341,-0.0357,-0.0362,-0.0363,-0.0387,-0.0397,-0.0446,-0.0444,-0.045,-0.0441,-0.0495,-0.0495,-0.0496,-0.0456,-0.0453,-0.045,0,0,0,0,0,0,-0.0268,-0.0292,-0.0301,-0.0305,-0.032,-0.0341,-0.0342,-0.0354,-0.0373,-0.0374,-0.0402,-0.0409,-0.0426,-0.0443,-0.044,-0.0457,-0.047,-0.0472,-0.0438,-0.0435,-0.0433,-0.0405,-0.0453,0,0,0,0,0,-0.0265,-0.0271,-0.0294,-0.0296,-0.0301,-0.0322,-0.0329,-0.0339,-0.0358,-0.0366,-0.0387,-0.041,-0.0431,-0.044,-0.0462,-0.0473,-0.0483,-0.0471,-0.0468,-0.0466,-0.0448,-0.0466,-0.0463,-0.0496,-0.0496,-0.0496,0,0,-0.0255,-0.0269,-0.0272,-0.0292,-0.0303,-0.03,-0.0326,-0.0332,-0.0328,-0.037,-0.0372,-0.0404,-0.0433,-0.0446,-0.0454,-0.0458,-0.0463,-0.0466,-0.0464,-0.0447,-0.0466,-0.0463,-0.046,-0.0496,-0.0496,-0.0496,0,0,-0.0231,-0.0251,-0.0245,-0.0255,-0.0272,-0.0284,-0.0284,-0.0305,-0.0313,-0.0327,-0.0354,-0.0379,-0.041,-0.0426,-0.044,-0.0437,-0.0452,-0.0444,-0.0405,-0.0423,-0.042,-0.0418,-0.0427,-0.0426,-0.044,-0.044,-0.044,0,-0.0216,-0.0211,-0.0244,-0.0238,-0.0236,-0.0272,-0.0254,-0.0271,-0.0296,-0.0297,-0.0321,-0.0363,-0.0397,-0.0403,-0.0405,-0.0428,-0.0438,-0.0413,-0.0419,-0.0416,-0.0414,-0.0425,-0.0424,-0.0438,-0.0438,-0.0438,-0.0438,0,-0.0184,-0.018,-0.0176,-0.0179,-0.0184,-0.0177,-0.02,-0.0207,-0.0226,-0.0242,-0.026,-0.0311,-0.0331,-0.0352,-0.038,-0.038,-0.0391,-0.0415,-0.0422,-0.0408,-0.0421,-0.042,-0.0435,-0.0436,-0.0436,-0.0437,0,0,-0.0137,-0.0149,-0.0143,-0.0132,-0.0149,-0.0144,-0.0142,-0.0143,-0.0128,-0.0175,-0.0159,-0.0218,-0.0248,-0.0265,-0.0306,-0.0327,-0.0337,-0.036,-0.0362,-0.036,-0.0368,-0.0366,-0.0366,-0.0362,-0.0362,-0.0362,-0.0381,0,-0.0093,-0.0063,-0.0082,-0.0047,-0.003,-0.006,-0.0044,-0.0055,-0.0079,-0.0079,-0.0138,-0.015,-0.0214,-0.0224,-0.0256,-0.0312,-0.0333,-0.0328,-0.0388,-0.0389,-0.0382,-0.0364,-0.0331,-0.0344,-0.0381,-0.0381,-0.0381,0,-0.0043,-0.003,0.0016,0.0032,0.0039,0.0056,0.0077,0.0079,0.0057,0.0036,0.0002,-0.0044,-0.0084,-0.0144,-0.0224,-0.0217,-0.0283,-0.0333,-0.0336,-0.0344,-0.0386,-0.0365,-0.0342,-0.0478,-0.0381,-0.0381,-0.0381,0,0.0024,0.0043,0.0086,0.0091,0.0101,0.0124,0.0131,0.0124,0.0141,0.0109,0.0114,0.005,0.0033,-0.0062,-0.0175,-0.0198,-0.0259,-0.0307,-0.0366,-0.0367,-0.0352,-0.0351,-0.0457,-0.0359,-0.0359,-0.0359,-0.0358,0,0.0083,0.0117,0.0123,0.0148,0.021,0.0191,0.0246,0.0238,0.0242,0.0282,0.0181,0.0201,0.0053,-0.0006,-0.0129,-0.0233,-0.0226,-0.0343,-0.0367,-0.0337,-0.0336,-0.0465,-0.0549,-0.0359,-0.0359,-0.0359,-0.0359,0,0.0149,0.0151,0.0201,0.0228,0.0243,0.0287,0.0322,0.0359,0.0344,0.0393,0.0389,0.0328,0.0251,0.0101,-0.0036,-0.0153,-0.034,-0.0313,-0.0262,-0.028,-0.0469,-0.055,-0.0665,-0.0724,-0.0378,-0.0378,-0.0378,0,0.0182,0.0217,0.0267,0.0305,0.0322,0.0372,0.0416,0.0415,0.0455,0.0482,0.0523,0.0465,0.0446,0.0238,0.0022,-0.0178,-0.0324,-0.0285,-0.0331,-0.0459,-0.0569,-0.0634,-0.068,-0.0299,-0.0298,-0.0298,-0.0297,0,0.025,0.0271,0.0313,0.0392,0.0446,0.0501,0.056,0.0612,0.0631,0.0674,0.0737,0.0729,0.0539,0.0353,0.007,-0.0071,-0.0373,-0.0281,-0.0429,-0.0519,-0.058,-0.0654,-0.0308,-0.0293,-0.0293,-0.0293,-0.0294,-0.0294,0.0306,0.035,0.041,0.0484,0.0546,0.0628,0.0684,0.0756,0.0843,0.0927,0.0916,0.0934,0.0645,0.0266,0.0053,-0.0324,-0.0355,-0.0445,-0.0533,-0.0586,-0.0646,-0.0282,-0.0289,-0.029,-0.029,-0.029,-0.0291,0,0.0375,0.0422,0.0495,0.0581,0.0654,0.0673,0.0781,0.0844,0.0962,0.1057,0.1111,0.1005,0.065,0.0279,-0.0239,-0.0525,-0.0636,-0.0685,-0.0778,-0.0815,-0.0496,-0.0495,-0.0529,-0.0529,-0.0529,-0.0529,-0.0528,-0.0528,0.0415,0.0498,0.0531,0.0658,0.0716,0.0816,0.088,0.0987,0.1075,0.119,0.1231,0.1235,0.0971,0.0014,-0.0641,-0.0798,-0.1015,-0.1053,-0.1185,-0.0982,-0.0967,-0.0952,-0.0972,-0.1105,-0.1106,-0.1449,-0.1452,-0.1455]}],[{"header":{"parameterUnit":"m.s-1","parameterCategory":2,"la1":30.2991,"la2":30.254,"lo1":-89.0895,"lo2":-89.0444,"dy":0.0017,"dx":0.0017,"nx":28,"ny":28,"refTime":"2023-09-05T03:00:00:Z","depth":"2","parameterNumber":2,"parameterNumberName":"U-component_of_CURRENTS"},"data":[0,0,0,0,0,0,0,0,0,0,0,0,0,0,0,0,0,0,0,0,0,0,0,0,0,0,0,0,0,0,0,0,0,0,0,0,0,0,0,0,0,0,0,0,0,0,0,0,0,0,0,0,0,0,0,0,0,0,0.2123,0.2124,0,0.2148,0.2148,0.2148,0.2146,0.2146,0.2145,0.2145,0.2142,0.2142,0.2142,0,0,0,0,0,0,0,0,0,0,0,0,0,0.2059,0.206,0.2123,0.2124,0.2124,0.2148,0.2148,0.2148,0.2146,0.2146,0.2145,0.2145,0.2142,0.2142,0.2142,0,0,0,0,0,0,0,0,0,0,0,0,0,0.2084,0.206,0.2123,0.2127,0.2128,0.2148,0.2148,0.2148,0.2146,0.2146,0.2145,0.2145,0.2142,0.2142,0.2142,0.2149,0,0,0.2142,0.2143,0,0,0,0,0,0,0,0,0.2082,0.2086,0.2126,0.2127,0.2128,0.2145,0.2124,0.2147,0.2146,0.2137,0.2145,0.2145,0.2142,0.2142,0.2145,0.2149,0.2149,0.2142,0.2143,0.2143,0.2143,0,0,0,0,0,0,0,0.2081,0.2085,0.2131,0.2127,0.2128,0.2123,0.2126,0.2128,0.2139,0.2138,0.2138,0.2144,0.2142,0.2145,0.2145,0.2148,0.2142,0.2143,0.2143,0.2143,0.2201,0.2203,0,0,0,0,0,0,0.2083,0.2083,0.213,0.2132,0.2106,0.2124,0.2128,0.2138,0.2139,0.214,0.2144,0.2144,0.2145,0.2145,0.2145,0.2185,0.2143,0.2143,0.2143,0.22,0.2202,0.2203,0,0,0,0,0,0,0.2081,0.2087,0.2129,0.2109,0.2114,0.2126,0.2138,0.2139,0.2153,0.2145,0.2145,0.2159,0.2144,0.2144,0.2165,0.2183,0.2143,0.2143,0.2198,0.22,0.2202,0.2244,0,0,0,0,0,0,0.208,0.2086,0.2103,0.211,0.2116,0.2148,0.2138,0.214,0.2157,0.2157,0.2157,0.2156,0.2144,0.2165,0.2165,0.2183,0.2143,0.2196,0.2199,0.2202,0.2241,0.2248,0.2253,0,0,0,0,0,0.2077,0.2098,0.2103,0.2109,0.2135,0.2149,0.2152,0.2157,0.2158,0.2168,0.2175,0.2156,0.2183,0.2167,0.2167,0.2184,0.2195,0.2198,0.2202,0.2238,0.2246,0.2253,0,0,0,0,0,0,0.2096,0.21,0.2106,0.2133,0.2144,0.2149,0.2162,0.2167,0.2181,0.2184,0.2174,0.2174,0.2199,0.2191,0.2174,0.2212,0.2186,0.219,0.2214,0.2222,0.2228,0.2224,0.2143,0,0,0,0,0,0.2104,0.2103,0.2123,0.214,0.2152,0.216,0.217,0.2175,0.2185,0.2191,0.2194,0.2201,0.2211,0.2217,0.2222,0.2243,0.2243,0.2256,0.2262,0.2267,0.2266,0.2288,0.2295,0.2214,0.2214,0.2214,0,0,0.2111,0.2116,0.2116,0.2141,0.215,0.2169,0.2165,0.2184,0.2203,0.2189,0.2217,0.2222,0.2223,0.2246,0.2256,0.2242,0.2295,0.2271,0.2275,0.2272,0.2292,0.2299,0.2306,0.2216,0.2216,0.2216,0,0,0.2117,0.2136,0.2139,0.215,0.217,0.2182,0.2192,0.2211,0.2226,0.2256,0.2252,0.2271,0.2287,0.229,0.2294,0.2339,0.2327,0.2344,0.237,0.2392,0.2398,0.2404,0.2429,0.2436,0.2347,0.2347,0.2347,0,0.2124,0.2138,0.2144,0.2157,0.2168,0.219,0.2208,0.223,0.2254,0.2268,0.2271,0.2306,0.2307,0.2331,0.235,0.2351,0.2364,0.2339,0.2398,0.2404,0.2409,0.2433,0.244,0.2349,0.2349,0.2349,0.2348,0,0.2134,0.215,0.2156,0.2172,0.2191,0.2207,0.2241,0.2268,0.2292,0.2309,0.2346,0.2357,0.2374,0.2383,0.2382,0.2419,0.2418,0.2403,0.2376,0.2419,0.2442,0.2449,0.2353,0.2352,0.2351,0.235,0,0,0.2118,0.2154,0.2153,0.2163,0.2199,0.2211,0.2256,0.2294,0.2323,0.2356,0.2388,0.2417,0.2424,0.243,0.2432,0.2454,0.2508,0.2449,0.2449,0.2467,0.2565,0.255,0.2557,0.2505,0.2506,0.2507,0.2571,0,0.2118,0.2141,0.2162,0.2183,0.22,0.2234,0.2272,0.231,0.2349,0.239,0.2415,0.2447,0.2443,0.2458,0.2481,0.2502,0.2527,0.2492,0.2525,0.2526,0.2502,0.2564,0.237,0.241,0.2578,0.2579,0.258,0,0.2111,0.2129,0.215,0.2188,0.22,0.2224,0.2279,0.2316,0.2381,0.2414,0.2452,0.2473,0.2518,0.2506,0.2564,0.2545,0.256,0.2572,0.2575,0.2548,0.2525,0.2392,0.2416,0.2592,0.2591,0.259,0.2589,0,0.2075,0.2113,0.2127,0.2136,0.2191,0.2215,0.2256,0.2321,0.235,0.2431,0.2462,0.2514,0.255,0.2579,0.2617,0.2597,0.2679,0.2649,0.2647,0.2646,0.248,0.2462,0.2684,0.2684,0.2683,0.2683,0.2683,0,0.2051,0.2061,0.2113,0.2117,0.2144,0.2197,0.2235,0.229,0.2359,0.24,0.2468,0.2515,0.2571,0.2623,0.2641,0.2681,0.2701,0.2666,0.2667,0.2492,0.2476,0.2623,0.2616,0.2686,0.2685,0.2685,0.2684,0,0.1996,0.2032,0.2046,0.2104,0.2122,0.2142,0.2211,0.2243,0.2326,0.2384,0.2412,0.2524,0.2612,0.2659,0.2725,0.2714,0.2748,0.275,0.2551,0.2526,0.2693,0.2686,0.2754,0.2754,0.2755,0.2755,0.2755,0,0.1971,0.1969,0.2014,0.2025,0.2051,0.2092,0.2122,0.2211,0.2249,0.2389,0.2415,0.2532,0.2598,0.2703,0.2726,0.2762,0.2779,0.2584,0.2506,0.2709,0.2702,0.2696,0.269,0.2304,0.23,0.2297,0.2295,0,0.1914,0.1927,0.1941,0.1963,0.199,0.2013,0.2074,0.2091,0.2206,0.2271,0.2376,0.2443,0.2577,0.2546,0.2612,0.2602,0.2565,0.2527,0.2788,0.2326,0.2292,0.2283,0.229,0.2268,0.2271,0.2273,0.2274,0.2275,0.1869,0.1859,0.1878,0.189,0.1917,0.1932,0.193,0.1999,0.2046,0.2124,0.2262,0.2305,0.237,0.2386,0.2344,0.2323,0.249,0.2362,0.2367,0.2376,0.2323,0.2292,0.2258,0.2261,0.2263,0.2265,0.2266,0,0.1803,0.1804,0.1809,0.1817,0.1809,0.1858,0.1887,0.187,0.1895,0.2,0.207,0.1969,0.1976,0.2033,0.1976,0.2005,0.1947,0.1912,0.1801,0.1832,0.1858,0.1772,0.1565,0.1562,0.1559,0.1557,0,0,0.1776,0.1745,0.1739,0.1701,0.1712,0.1679,0.1676,0.167,0.1714,0.1715,0.1733,0.189,0.1988,0.1741,0.1736,0.1632,0.1707,0.1576,0.2149,0.205,0.2072,0.2144,0.2052,0,0,0,0,0]},{"header":{"parameterUnit":"m.s-1","parameterCategory":2,"la1":30.2991,"la2":30.254,"lo1":-89.0895,"lo2":-89.0444,"dy":0.0017,"dx":0.0017,"nx":28,"ny":28,"refTime":"2023-09-05T03:00:00:Z","depth":"2","parameterNumber":3,"parameterNumberName":"V-component_of_CURRENTS"},"data":[0,0,0,0,0,0,0,0,0,0,0,0,0,0,0,0,0,0,0,0,0,0,0,0,0,0,0,0,0,0,0,0,0,0,0,0,0,0,0,0,0,0,0,0,0,0,0,0,0,0,0,0,0,0,0,0,0,0,-0.0003,-0.0003,0,-0.0047,-0.0047,-0.0048,-0.0083,-0.0083,-0.0083,-0.0084,-0.0129,-0.013,-0.0131,0,0,0,0,0,0,0,0,0,0,0,0,0,0.0056,0.0055,-0.0003,-0.0003,-0.0003,-0.0047,-0.0047,-0.0048,-0.0083,-0.0083,-0.0083,-0.0084,-0.0129,-0.013,-0.0132,0,0,0,0,0,0,0,0,0,0,0,0,0,0.0022,0.0055,-0.0003,-0.0025,-0.0028,-0.0046,-0.0047,-0.0048,-0.0083,-0.0083,-0.0084,-0.0084,-0.0129,-0.013,-0.0132,-0.0134,0,0,-0.0136,-0.0137,0,0,0,0,0,0,0,0,0.0024,0.002,-0.0021,-0.0024,-0.0026,-0.0059,-0.0043,-0.0076,-0.0083,-0.0063,-0.0084,-0.0084,-0.0105,-0.0108,-0.0118,-0.0136,-0.0138,-0.0136,-0.0137,-0.0138,-0.0138,0,0,0,0,0,0,0,0.0027,0.0022,-0.0021,-0.0022,-0.0025,-0.0031,-0.0037,-0.005,-0.0082,-0.0065,-0.0067,-0.007,-0.0106,-0.0116,-0.0119,-0.0138,-0.0136,-0.0138,-0.0139,-0.0139,-0.0174,-0.0174,0,0,0,0,0,0,0.0034,0.0024,-0.002,-0.0022,-0.0,-0.0032,-0.0038,-0.0049,-0.0082,-0.0087,-0.007,-0.0072,-0.0113,-0.0117,-0.0121,-0.0124,-0.0138,-0.0139,-0.014,-0.0174,-0.0174,-0.0174,0,0,0,0,0,0,0.0036,0.0031,-0.0018,0.0001,-0.0005,-0.0033,-0.0044,-0.005,-0.0062,-0.0086,-0.0091,-0.0077,-0.0114,-0.0118,-0.0133,-0.0126,-0.014,-0.0141,-0.0174,-0.0174,-0.0174,-0.0132,0,0,0,0,0,0,0.0037,0.0031,0.0026,0.0001,-0.0006,-0.0022,-0.0044,-0.005,-0.0063,-0.0066,-0.0094,-0.0098,-0.0114,-0.013,-0.0134,-0.0128,-0.0143,-0.0174,-0.0174,-0.0174,-0.0133,-0.013,-0.0128,0,0,0,0,0,0.004,0.0043,0.0026,0.0021,-0.0013,-0.0021,-0.0025,-0.0046,-0.0062,-0.0061,-0.0085,-0.0098,-0.0133,-0.0131,-0.0136,-0.0131,-0.0174,-0.0174,-0.0174,-0.0134,-0.0131,-0.0128,0,0,0,0,0,0,0.0059,0.0038,0.002,0.0013,-0.0002,-0.0026,-0.0025,-0.0045,-0.0064,-0.0068,-0.0097,-0.0102,-0.0111,-0.0129,-0.0126,-0.0142,-0.0156,-0.0157,-0.0124,-0.0122,-0.0119,-0.0102,-0.0144,0,0,0,0,0,0.0062,0.0066,0.0035,0.0033,0.0025,-0.0003,-0.0011,-0.0025,-0.0044,-0.0054,-0.0078,-0.0101,-0.0115,-0.0124,-0.0139,-0.0147,-0.0167,-0.0148,-0.0146,-0.0143,-0.0134,-0.0165,-0.0165,-0.0174,-0.0174,-0.0174,0,0,0.0068,0.006,0.0059,0.004,0.0025,0.0023,-0.0008,-0.0013,-0.0015,-0.0055,-0.0066,-0.009,-0.0115,-0.0123,-0.0129,-0.0137,-0.0152,-0.0143,-0.0141,-0.0133,-0.0165,-0.0164,-0.0164,-0.0174,-0.0174,-0.0174,0,0,0.0097,0.0075,0.0087,0.008,0.0065,0.0047,0.0046,0.0017,0.0002,-0.0013,-0.004,-0.0062,-0.0088,-0.0105,-0.0116,-0.0109,-0.0135,-0.0116,-0.009,-0.0121,-0.012,-0.012,-0.0143,-0.0145,-0.0117,-0.0116,-0.0116,0,0.0109,0.011,0.009,0.0101,0.0101,0.006,0.0069,0.0051,0.0021,0.0013,-0.0009,-0.0053,-0.0078,-0.0085,-0.0086,-0.0102,-0.0122,-0.0098,-0.0117,-0.0117,-0.0117,-0.0141,-0.0144,-0.0114,-0.0115,-0.0115,-0.0115,0,0.0141,0.0144,0.0153,0.0152,0.0148,0.0154,0.0126,0.0113,0.0084,0.0061,0.004,-0.0002,-0.0029,-0.0043,-0.0063,-0.0074,-0.0088,-0.0107,-0.0121,-0.0113,-0.014,-0.0143,-0.0112,-0.0112,-0.0113,-0.0113,0,0,0.0173,0.0175,0.0179,0.0189,0.0177,0.018,0.0177,0.0162,0.016,0.0117,0.0112,0.007,0.0037,0.0022,-0.0012,-0.0042,-0.0068,-0.0073,-0.0075,-0.0089,-0.0131,-0.0137,-0.0142,-0.0092,-0.0092,-0.0092,-0.0147,0,0.0204,0.0237,0.0228,0.0256,0.0267,0.0241,0.0246,0.023,0.0198,0.0181,0.0131,0.0112,0.0065,0.005,0.0013,-0.0043,-0.0076,-0.0051,-0.0141,-0.0144,-0.0146,-0.0146,-0.0112,-0.0158,-0.0151,-0.0152,-0.0152,0,0.0238,0.0257,0.0291,0.031,0.0312,0.0321,0.032,0.032,0.0287,0.0261,0.0224,0.0182,0.0139,0.0092,-0.0001,0.0017,-0.0051,-0.0101,-0.0105,-0.0126,-0.0157,-0.0166,-0.0165,-0.0159,-0.0158,-0.0158,-0.0157,0,0.0277,0.0303,0.0334,0.0342,0.0353,0.0362,0.0363,0.0343,0.0351,0.0311,0.0305,0.0239,0.0213,0.0119,0.0012,0.0003,-0.0091,-0.0121,-0.019,-0.0191,-0.0186,-0.0186,-0.019,-0.019,-0.0189,-0.0189,-0.0189,0,0.0319,0.0345,0.0354,0.0374,0.0411,0.0404,0.043,0.0417,0.041,0.0434,0.0351,0.0352,0.0218,0.0147,0.0037,-0.0081,-0.0077,-0.018,-0.0205,-0.0171,-0.0169,-0.019,-0.0189,-0.0191,-0.0191,-0.0191,-0.019,0,0.0357,0.0365,0.0403,0.0422,0.0431,0.0457,0.048,0.05,0.0482,0.0509,0.0504,0.0439,0.0348,0.021,0.0065,-0.0038,-0.0158,-0.0202,-0.0148,-0.0166,-0.0244,-0.0241,-0.0287,-0.0287,-0.0288,-0.0288,-0.0289,0,0.0377,0.0404,0.044,0.0465,0.0474,0.0506,0.0534,0.0534,0.0562,0.0571,0.0597,0.0523,0.0485,0.0266,0.0071,-0.012,-0.0153,-0.0218,-0.0236,-0.0234,-0.0254,-0.025,-0.0246,-0.0215,-0.0215,-0.0215,-0.0215,0,0.0416,0.043,0.0458,0.0511,0.0546,0.059,0.063,0.0667,0.0687,0.0712,0.0744,0.0719,0.0523,0.0338,0.0072,-0.0052,-0.0187,-0.0221,-0.0235,-0.0193,-0.0171,-0.0189,-0.0187,-0.0213,-0.0213,-0.0214,-0.0214,-0.0214,0.044,0.0467,0.0506,0.0556,0.0605,0.067,0.071,0.0767,0.0831,0.0883,0.0863,0.0833,0.0623,0.0291,0.006,-0.018,-0.0173,-0.0255,-0.0254,-0.0254,-0.0232,-0.0212,-0.0258,-0.0258,-0.0259,-0.0259,-0.0259,0,0.0461,0.0496,0.0547,0.0607,0.0667,0.0689,0.0775,0.0822,0.0909,0.0963,0.0987,0.0803,0.0595,0.0344,-0.0011,-0.0224,-0.0236,-0.0285,-0.0256,-0.0255,-0.0255,-0.0234,-0.026,-0.0261,-0.0262,-0.0263,0,0,0.0472,0.0522,0.055,0.0645,0.0695,0.0778,0.0832,0.091,0.0966,0.1013,0.1007,0.0978,0.0679,0.0423,0.0136,-0.0071,-0.0114,-0.0103,-0.0075,-0.0004,-0.0002,-0.0205,-0.0167,0,0,0,0,0]}],[{"header":{"parameterUnit":"m.s-1","parameterCategory":2,"la1":30.2991,"la2":30.254,"lo1":-89.0895,"lo2":-89.0444,"dy":0.0017,"dx":0.0017,"nx":28,"ny":28,"refTime":"2023-09-05T03:00:00:Z","depth":"4","parameterNumber":2,"parameterNumberName":"U-component_of_CURRENTS"},"data":[0,0,0,0,0,0,0,0,0,0,0,0,0,0,0,0,0,0,0,0,0,0,0,0,0,0,0,0,0,0,0,0,0,0,0,0,0,0,0,0,0,0,0,0,0,0,0,0,0,0,0,0,0,0,0,0,0,0,0.13,0.1301,0,0.1369,0.1369,0.137,0.1419,0.142,0.142,0.1421,0.1492,0.1493,0.1495,0,0,0,0,0,0,0,0,0,0,0,0,0,0.1181,0.1183,0.13,0.1301,0.1302,0.1369,0.1369,0.137,0.1419,0.142,0.142,0.1421,0.1492,0.1493,0.1495,0,0,0,0,0,0,0,0,0,0,0,0,0,0.1238,0.1184,0.13,0.1336,0.134,0.1369,0.137,0.137,0.1419,0.142,0.1421,0.1421,0.1491,0.1493,0.1495,0.149,0,0,0.1501,0.1502,0,0,0,0,0,0,0,0,0.1235,0.1242,0.133,0.1334,0.1338,0.1388,0.1354,0.1411,0.1419,0.1387,0.1421,0.1422,0.1458,0.1463,0.1471,0.1493,0.1496,0.1501,0.1503,0.1503,0.1504,0,0,0,0,0,0,0,0.1231,0.1239,0.1325,0.1331,0.1336,0.1339,0.1348,0.1365,0.1415,0.139,0.1394,0.1404,0.146,0.1469,0.1473,0.1497,0.1501,0.1503,0.1504,0.1505,0.1605,0.1606,0,0,0,0,0,0,0.1227,0.1236,0.1323,0.1328,0.129,0.134,0.135,0.137,0.1415,0.1423,0.1404,0.1407,0.1465,0.1471,0.1476,0.1552,0.1503,0.1505,0.1506,0.1603,0.1605,0.1607,0,0,0,0,0,0,0.1225,0.1235,0.132,0.1284,0.1296,0.1342,0.1363,0.1371,0.1408,0.1426,0.1434,0.1437,0.1466,0.1473,0.1517,0.1552,0.1506,0.1508,0.1602,0.1604,0.1606,0.1653,0,0,0,0,0,0,0.1221,0.1234,0.1257,0.1284,0.1298,0.1355,0.1362,0.1371,0.1413,0.1418,0.1457,0.1463,0.1467,0.1514,0.1519,0.1554,0.151,0.16,0.1603,0.1605,0.1649,0.1656,0.1662,0,0,0,0,0,0.1217,0.1241,0.1258,0.1269,0.1325,0.1357,0.1364,0.1397,0.1414,0.1434,0.1463,0.1463,0.1535,0.1517,0.1522,0.1558,0.1598,0.1602,0.1605,0.1646,0.1655,0.1662,0,0,0,0,0,0,0.1202,0.1249,0.1268,0.1307,0.1339,0.1366,0.1393,0.1412,0.1451,0.1465,0.1478,0.1486,0.154,0.1541,0.152,0.1595,0.1568,0.1572,0.1598,0.1606,0.1612,0.1608,0.1511,0,0,0,0,0,0.1209,0.1244,0.1281,0.1315,0.1334,0.1368,0.139,0.1413,0.1445,0.1464,0.1492,0.1522,0.1551,0.1573,0.1595,0.1633,0.1636,0.1661,0.1668,0.1673,0.1675,0.1708,0.1718,0.1617,0.1617,0.1617,0,0,0.1212,0.1245,0.1265,0.1315,0.1344,0.1375,0.1384,0.1427,0.1459,0.1465,0.1524,0.1547,0.1567,0.1613,0.1637,0.1622,0.1705,0.1677,0.1682,0.168,0.1713,0.1722,0.1731,0.1619,0.1619,0.1619,0,0,0.1225,0.1267,0.1297,0.1327,0.1378,0.1398,0.1417,0.1461,0.1492,0.1541,0.1558,0.1601,0.1646,0.1668,0.1682,0.1737,0.1738,0.1752,0.1782,0.1816,0.1824,0.1831,0.1852,0.1861,0.1755,0.1755,0.1755,0,0.1228,0.1272,0.1309,0.1344,0.1373,0.1412,0.1444,0.1477,0.1532,0.1561,0.1569,0.1651,0.167,0.1724,0.1746,0.1752,0.1767,0.1751,0.1824,0.1831,0.1838,0.1857,0.1866,0.1757,0.1757,0.1757,0.1757,0,0.1256,0.13,0.1321,0.1379,0.1413,0.145,0.1496,0.1539,0.158,0.1612,0.1684,0.1712,0.176,0.1777,0.178,0.1843,0.1838,0.1827,0.1802,0.185,0.1868,0.1876,0.1761,0.176,0.1759,0.1759,0,0,0.1236,0.1323,0.1333,0.1367,0.1437,0.1465,0.1525,0.1584,0.1631,0.1686,0.1744,0.1801,0.1825,0.1843,0.186,0.1888,0.195,0.1883,0.1884,0.1899,0.2024,0.191,0.1908,0.1958,0.196,0.1961,0.2018,0,0.1247,0.1313,0.1355,0.1418,0.1453,0.1509,0.1559,0.1621,0.1677,0.1742,0.1787,0.1848,0.1848,0.1883,0.1914,0.1947,0.1975,0.1935,0.1978,0.1979,0.1868,0.1914,0.1967,0.2025,0.2027,0.2028,0.2029,0,0.1254,0.1301,0.1363,0.1446,0.1467,0.1513,0.1603,0.1654,0.1746,0.1793,0.186,0.1896,0.1965,0.1949,0.2027,0.2006,0.2022,0.2033,0.2036,0.1916,0.188,0.1966,0.2044,0.2043,0.2042,0.2041,0.204,0,0.1217,0.1304,0.1356,0.1386,0.1481,0.1528,0.1584,0.1676,0.1725,0.1834,0.188,0.196,0.2013,0.2049,0.2085,0.2068,0.2153,0.2129,0.2037,0.2029,0.2094,0.2085,0.2174,0.2174,0.2174,0.2174,0.2174,0,0.12,0.1244,0.135,0.1379,0.1445,0.1522,0.1598,0.1667,0.1764,0.1823,0.1909,0.196,0.2043,0.2097,0.2111,0.2103,0.218,0.2047,0.2038,0.2113,0.2106,0.21,0.209,0.2176,0.2175,0.2175,0.2175,0,0.1146,0.1216,0.1281,0.1393,0.143,0.1481,0.1596,0.1645,0.1751,0.1831,0.1869,0.1984,0.2056,0.2114,0.2181,0.2128,0.2135,0.2111,0.2197,0.2191,0.1981,0.1973,0.2005,0.2002,0.1999,0.1996,0.1994,0,0.1121,0.1153,0.1276,0.1317,0.1372,0.1458,0.1511,0.1628,0.1676,0.1828,0.1853,0.1966,0.2029,0.2027,0.2104,0.2122,0.2098,0.2082,0.2015,0.1976,0.1965,0.1962,0.1959,0.199,0.1989,0.1988,0.1987,0,0.1072,0.1129,0.1184,0.1267,0.1334,0.1393,0.148,0.1499,0.163,0.1738,0.1789,0.1829,0.1907,0.1954,0.1986,0.1995,0.2079,0.205,0.2055,0.1992,0.1958,0.1949,0.1949,0.1977,0.1978,0.1979,0.198,0,0.1036,0.1061,0.1142,0.1203,0.1279,0.1309,0.1363,0.1419,0.1475,0.1631,0.1651,0.1775,0.1888,0.1891,0.1925,0.1923,0.1888,0.1814,0.1831,0.1843,0.1764,0.1695,0.163,0,0,0,0,0,0.0993,0.1016,0.1071,0.1131,0.12,0.1244,0.1333,0.1386,0.1504,0.1495,0.1564,0.1627,0.168,0.175,0.1716,0.1863,0.1901,0.1817,0.1825,0.1919,0.1931,0.1854,0,0,0,0,0,0,0.0965,0.1018,0.1043,0.1057,0.1081,0.1142,0.1193,0.1274,0.1269,0.1396,0.143,0.1532,0.1607,0.1683,0.1687,0.1708,0.1679,0.1897,0.1893,0.1913,0.1924,0.1933,0.1858,0,0,0,0,0]},{"header":{"parameterUnit":"m.s-1","parameterCategory":2,"la1":30.2991,"la2":30.254,"lo1":-89.0895,"lo2":-89.0444,"dy":0.0017,"dx":0.0017,"nx":28,"ny":28,"refTime":"2023-09-05T03:00:00:Z","depth":"4","parameterNumber":3,"parameterNumberName":"V-component_of_CURRENTS"},"data":[0,0,0,0,0,0,0,0,0,0,0,0,0,0,0,0,0,0,0,0,0,0,0,0,0,0,0,0,0,0,0,0,0,0,0,0,0,0,0,0,0,0,0,0,0,0,0,0,0,0,0,0,0,0,0,0,0,0,0.0119,0.0118,0,0.0086,0.0085,0.0085,0.0056,0.0055,0.0055,0.0055,0.0017,0.0016,0.0016,0,0,0,0,0,0,0,0,0,0,0,0,0,0.0156,0.0156,0.0119,0.0118,0.0118,0.0086,0.0085,0.0085,0.0056,0.0055,0.0055,0.0054,0.0017,0.0016,0.0016,0,0,0,0,0,0,0,0,0,0,0,0,0,0.0134,0.0156,0.0119,0.0099,0.0097,0.0086,0.0085,0.0085,0.0056,0.0055,0.0055,0.0054,0.0017,0.0016,0.0016,0.0021,0,0,0.0013,0.0012,0,0,0,0,0,0,0,0,0.0135,0.0133,0.0102,0.01,0.0098,0.0074,0.0085,0.0063,0.0056,0.0072,0.0055,0.0054,0.0036,0.0033,0.0029,0.002,0.0018,0.0013,0.0012,0.0012,0.0011,0,0,0,0,0,0,0,0.0137,0.0134,0.0106,0.0102,0.0099,0.0092,0.0088,0.0081,0.0058,0.0071,0.0068,0.0064,0.0034,0.003,0.0028,0.0017,0.0013,0.0012,0.0011,0.0011,-0.0004,-0.0004,0,0,0,0,0,0,0.0141,0.0135,0.0107,0.0105,0.0115,0.0092,0.0087,0.0083,0.0058,0.0053,0.0064,0.0063,0.0032,0.0029,0.0026,0.0028,0.0012,0.0011,0.001,-0.0004,-0.0004,-0.0004,0,0,0,0,0,0,0.0141,0.0138,0.0109,0.0119,0.0115,0.0091,0.0086,0.0082,0.0077,0.0053,0.0049,0.0063,0.0031,0.0028,0.0022,0.0026,0.001,0.0009,-0.0004,-0.0004,-0.0004,0.0033,0,0,0,0,0,0,0.0143,0.0139,0.0142,0.0119,0.0114,0.0107,0.0087,0.0082,0.0075,0.0072,0.0051,0.0046,0.0031,0.0023,0.0021,0.0024,0.0009,-0.0005,-0.0004,-0.0004,0.0031,0.0034,0.0037,0,0,0,0,0,0.0144,0.0152,0.0142,0.0139,0.0118,0.0108,0.0105,0.0087,0.0075,0.0079,0.0062,0.0047,0.0023,0.0023,0.002,0.0023,-0.0005,-0.0004,-0.0004,0.003,0.0033,0.0036,0,0,0,0,0,0,0.0172,0.0149,0.0138,0.0139,0.0126,0.0103,0.0105,0.0091,0.008,0.0078,0.0053,0.0048,0.0043,0.003,0.003,0.0019,0.0006,0.0005,0.0032,0.0035,0.0038,0.0044,0.0008,0,0,0,0,0,0.0179,0.0178,0.0155,0.0156,0.0151,0.0129,0.0124,0.0111,0.0096,0.009,0.0073,0.0056,0.0043,0.0037,0.0025,0.0023,0.0001,0.0022,0.0025,0.0027,0.0029,-0.0005,-0.0005,-0.0002,-0.0002,-0.0002,0,0,0.019,0.0178,0.0177,0.0162,0.0151,0.015,0.0125,0.012,0.012,0.0089,0.0086,0.0067,0.0045,0.0041,0.0037,0.003,0.0015,0.0028,0.003,0.0031,-0.0004,-0.0004,-0.0005,-0.0002,-0.0002,-0.0002,0,0,0.0211,0.0201,0.0205,0.0198,0.0183,0.0171,0.0171,0.0149,0.0141,0.0136,0.0111,0.0094,0.0079,0.006,0.0049,0.006,0.0031,0.0057,0.0075,0.0043,0.0042,0.0041,0.0017,0.0013,0.0058,0.0058,0.0058,0,0.0226,0.0225,0.0207,0.021,0.0207,0.0182,0.0188,0.0178,0.0158,0.0151,0.0141,0.0106,0.0087,0.0073,0.0075,0.0066,0.0046,0.0066,0.0046,0.0045,0.0043,0.0018,0.0014,0.0059,0.0059,0.0059,0.0059,0,0.0244,0.0248,0.0252,0.0245,0.0243,0.0245,0.0228,0.0224,0.0209,0.0191,0.0175,0.0146,0.0122,0.0113,0.0098,0.008,0.0069,0.0054,0.0039,0.0045,0.0018,0.0013,0.0062,0.0061,0.0061,0.006,0,0,0.0264,0.0265,0.0266,0.0271,0.0261,0.0262,0.0264,0.0254,0.0252,0.0228,0.0221,0.0191,0.0165,0.0151,0.0125,0.0098,0.007,0.0076,0.0073,0.0054,0.0003,-0.0,-0.0006,0.0051,0.0051,0.005,-0.001,0,0.0282,0.0298,0.0292,0.0311,0.0317,0.0302,0.0309,0.0297,0.0279,0.0267,0.0229,0.0214,0.0183,0.0173,0.0139,0.009,0.0058,0.0088,-0.0002,-0.0004,-0.0007,-0.0012,0.0048,-0.0014,-0.0015,-0.0016,-0.0016,0,0.0296,0.0306,0.0327,0.0342,0.0344,0.0353,0.0353,0.0357,0.0332,0.0317,0.0287,0.0255,0.0216,0.0189,0.0102,0.0123,0.0066,0.0025,0.0021,0.0001,-0.0017,-0.0024,-0.0026,-0.0025,-0.0024,-0.0024,-0.0023,0,0.0312,0.033,0.035,0.0354,0.0366,0.0376,0.0383,0.0369,0.0376,0.0349,0.0344,0.0286,0.0265,0.0185,0.0099,0.0098,0.0002,-0.0013,-0.0071,-0.0072,-0.0067,-0.0065,-0.0081,-0.0081,-0.0081,-0.0081,-0.008,0,0.0326,0.0343,0.0361,0.0372,0.0401,0.0402,0.0423,0.0419,0.0417,0.043,0.0373,0.0365,0.0262,0.0196,0.0109,0.0007,0.0005,-0.0069,-0.0089,-0.0049,-0.0045,-0.007,-0.0068,-0.0083,-0.0082,-0.0082,-0.0081,0,0.0335,0.0347,0.0374,0.0398,0.041,0.043,0.0461,0.0475,0.0468,0.0483,0.048,0.0423,0.0338,0.0229,0.0103,0.0028,-0.0073,-0.0111,-0.0052,-0.0068,-0.0128,-0.0123,-0.0182,-0.0182,-0.0183,-0.0183,-0.0184,0,0.0338,0.0355,0.0394,0.0416,0.043,0.0461,0.0486,0.0499,0.0517,0.052,0.0531,0.0462,0.0408,0.0234,0.011,-0.006,-0.0087,-0.0143,-0.0145,-0.0125,-0.014,-0.0134,-0.0129,-0.0185,-0.0185,-0.0185,-0.0185,0,0.0345,0.0363,0.0385,0.0433,0.0468,0.0506,0.0544,0.0562,0.0585,0.0583,0.0572,0.0484,0.0387,0.0244,0.011,-0.0013,-0.0108,-0.0149,-0.0149,-0.0151,-0.013,-0.0142,-0.0136,-0.0187,-0.0187,-0.0187,-0.0186,0,0.035,0.0366,0.0402,0.0442,0.0493,0.0539,0.0557,0.0585,0.0605,0.0613,0.0611,0.0508,0.0453,0.0269,0.0147,0.0024,-0.0012,-0.0056,-0.0062,-0.0061,-0.0013,0.0033,0.0008,0,0,0,0,0,0.0346,0.0365,0.0407,0.0453,0.0508,0.0538,0.0592,0.0608,0.0633,0.0635,0.0625,0.0538,0.0366,0.029,0.0166,0.0118,-0.0047,-0.0033,-0.0103,-0.0198,-0.0196,-0.016,0,0,0,0,0,0,0.0341,0.0377,0.04,0.0459,0.0494,0.0555,0.0592,0.0612,0.0609,0.062,0.0531,0.0499,0.0328,0.0437,0.0161,0.0124,0.006,-0.0111,-0.0114,-0.0199,-0.0197,-0.0195,-0.0158,0,0,0,0,0]}]]